Birmingham, AL

5:22 AM CDT on June 28, 2017 (GMT -0500)
Birmingham International

Weather History for KBHM - October, 2014

Change the Weather History Date:

Saturday, October 11, 2014

  Actual Average Record
Temperature  
Mean Temperature 77 °F 66 °F  
Max Temperature 86 °F 77 °F 88 °F (1919)
Min Temperature 68 °F 55 °F 35 °F (1906)
Degree Days  
Heating Degree Days 0 3  
Month to date heating degree days 15 22  
Since 1 July heating degree days 15 31  
Cooling Degree Days 12 3  
Month to date cooling degree days 90 47  
Year to date cooling degree days 2106 1997  
Growing Degree Days 26 (Base 50)    
Moisture  
Dew Point 67 °F    
Average Humidity 72    
Maximum Humidity 97    
Minimum Humidity 47    
Precipitation  
Precipitation 0.03 in 0.11 in 3.50 in (1902)
Month to date precipitation 0.97 1.23  
Year to date precipitation 35.47 42.21  
Snow  
Snow 0.00 in 0.00 in - ()
Month to date snowfall 0.0 0.0  
Since 1 July snowfall 0.0 0.0  
Since 1 September snowfall 0.0 0.0  
Snow Depth 0.00 in    
Sea Level Pressure  
Sea Level Pressure 30.02 in    
Wind  
Wind Speed 5 mph (WSW)    
Max Wind Speed 15 mph    
Max Gust Speed 19 mph    
Visibility 10 miles    
Events Rain    
T = Trace of Precipitation, MM = Missing Value Source: NWS Daily Summary

Daily Weather History Graph

Daily Weather History Graph

Search for Another Location

Airport or City:

Trip Planner

Search our weather history database for the weather conditions in past years. The results will help you decide how hot, cold, wet, or windy it might be!

Date:

Astronomy

Oct. 11, 2014 Rise Set
Actual Time 6:48 AM CDT 6:18 PM CDT
Civil Twilight 6:23 AM CDT 6:43 PM CDT
Nautical Twilight 5:54 AM CDT 7:12 PM CDT
Astronomical Twilight 5:26 AM CDT 7:40 PM CDT
Moon 8:54 PM CDT (10/11) 10:03 AM CDT (10/11)
Length of Visible Light 12h 19m
Length of Day
11h 29m
Waning Gibbous, 87% of the Moon is Illuminated
Oct 11
Waning Gibbous
Oct 15
Last Quarter
Oct 23
New
Oct 30
First Quarter
Nov 6
Full

Hourly Weather History & Observations

Time (CDT) Temp. Heat Index Dew Point Humidity Pressure Visibility Wind Dir Wind Speed Gust Speed Precip Events Conditions
12:53 AM 68.0 °F - 66.9 °F 96% 29.98 in 10.0 mi Calm Calm - N/A   Clear
1:53 AM 70.0 °F - 68.0 °F 93% 29.98 in 10.0 mi Variable 3.5 mph - N/A   Clear
2:53 AM 72.0 °F - 70.0 °F 93% 29.98 in 10.0 mi SSW 10.4 mph - N/A   Partly Cloudy
3:53 AM 72.0 °F - 69.1 °F 91% 29.98 in 10.0 mi SW 10.4 mph - N/A   Mostly Cloudy
4:07 AM 72.0 °F - 70.0 °F 93% 30.01 in 10.0 mi SW 5.8 mph - N/A   Mostly Cloudy
4:22 AM 72.0 °F - 70.0 °F 93% 30.01 in 10.0 mi SW 4.6 mph - N/A   Overcast
4:53 AM 72.0 °F - 70.0 °F 93% 29.99 in 10.0 mi SSW 8.1 mph - N/A   Overcast
5:53 AM 72.0 °F - 70.0 °F 93% 30.01 in 6.0 mi WSW 8.1 mph - 0.01 in Rain Light Rain
6:19 AM 70.0 °F - 69.1 °F 97% 30.05 in 9.0 mi NNW 8.1 mph - 0.01 in Rain Light Rain
6:32 AM 70.0 °F - 66.9 °F 90% 30.06 in 8.0 mi NNW 12.7 mph - 0.02 in Rain Rain
6:53 AM 69.8 °F - 66.2 °F 88% 30.06 in 10.0 mi NE 3.5 mph - N/A   Mostly Cloudy
7:53 AM 70.0 °F - 64.9 °F 84% 30.04 in 10.0 mi Calm Calm - N/A   Mostly Cloudy
8:53 AM 71.1 °F - 66.0 °F 84% 30.05 in 10.0 mi ESE 4.6 mph - N/A   Mostly Cloudy
9:53 AM 77.0 °F - 66.0 °F 69% 30.07 in 10.0 mi ESE 4.6 mph - N/A   Mostly Cloudy
10:53 AM 78.1 °F - 66.9 °F 68% 30.07 in 10.0 mi NW 5.8 mph - N/A   Mostly Cloudy
11:53 AM 77.0 °F - 68.0 °F 74% 30.07 in 10.0 mi Calm Calm - 0.00 in Rain Light Rain
12:35 PM 81.0 °F 83.8 °F 68.0 °F 65% 30.07 in 10.0 mi NNW 4.6 mph - 0.00 in   Mostly Cloudy
12:53 PM 79.0 °F - 66.9 °F 66% 30.04 in 10.0 mi North 9.2 mph - 0.00 in   Mostly Cloudy
1:22 PM 82.9 °F 85.0 °F 66.0 °F 56% 30.05 in 10.0 mi North 4.6 mph - N/A   Scattered Clouds
1:53 PM 82.9 °F 85.0 °F 66.0 °F 56% 30.01 in 10.0 mi West 8.1 mph - N/A   Partly Cloudy
2:53 PM 82.9 °F 84.6 °F 64.9 °F 54% 29.98 in 10.0 mi SSW 5.8 mph - N/A   Partly Cloudy
3:53 PM 82.9 °F 84.4 °F 64.0 °F 53% 29.97 in 10.0 mi SW 4.6 mph - N/A   Scattered Clouds
4:53 PM 84.9 °F 86.6 °F 64.9 °F 51% 29.96 in 10.0 mi South 8.1 mph - N/A   Scattered Clouds
5:53 PM 82.9 °F 83.3 °F 61.0 °F 47% 29.98 in 10.0 mi SW 8.1 mph - N/A   Partly Cloudy
6:53 PM 79.0 °F - 64.0 °F 60% 29.99 in 10.0 mi SSE 3.5 mph - N/A   Partly Cloudy
7:53 PM 73.0 °F - 64.9 °F 76% 29.99 in 10.0 mi Calm Calm - N/A   Partly Cloudy
8:53 PM 73.0 °F - 66.0 °F 79% 30.00 in 10.0 mi Calm Calm - N/A   Mostly Cloudy
9:53 PM 75.0 °F - 66.9 °F 76% 30.00 in 10.0 mi Calm Calm - N/A   Overcast
10:53 PM 75.2 °F - 66.2 °F 73% 30.02 in 10.0 mi NW 4.6 mph - N/A   Mostly Cloudy
11:53 PM 73.0 °F - 66.0 °F 79% 30.00 in 10.0 mi Calm Calm - N/A   Scattered Clouds